Time,TemperatureF,DewpointF,PressureIn,WindDirection,WindDirectionDegrees,WindSpeedMPH,WindSpeedGustMPH,Humidity,HourlyPrecipIn,Conditions,Clouds,dailyrainin,SolarRadiationWatts/m^2,SoftwareType,DateUTC
2013-07-21 00:22:00,65.0,65.0,-100.00,SE,131,0.0,5.0,100,0.00,,,0.20,0.000000,,2013-07-21 05:22:00,
2013-07-21 00:32:00,65.0,65.0,-100.00,SE,131,0.0,5.0,100,0.00,,,0.20,0.000000,,2013-07-21 05:32:00,
2013-07-21 00:42:00,65.0,65.0,-100.00,SE,131,0.0,5.0,100,0.00,,,0.20,0.000000,,2013-07-21 05:42:00,
2013-07-21 00:52:00,65.0,65.0,-100.00,SE,131,0.0,5.0,100,0.00,,,0.20,0.000000,,2013-07-21 05:52:00,
2013-07-21 01:22:00,63.0,63.0,-100.00,NNW,343,4.0,5.0,100,0.00,,,0.20,0.000000,,2013-07-21 06:22:00,
2013-07-21 01:32:00,63.0,63.0,-100.00,NNW,343,4.0,5.0,100,0.00,,,0.20,0.000000,,2013-07-21 06:32:00,
2013-07-21 01:42:00,63.0,63.0,-100.00,NNW,343,4.0,5.0,100,0.00,,,0.20,0.000000,,2013-07-21 06:42:00,
2013-07-21 01:52:00,63.0,63.0,-100.00,NNW,343,4.0,5.0,100,0.00,,,0.20,0.000000,,2013-07-21 06:52:00,
2013-07-21 02:22:00,67.0,67.0,-100.00,NW,315,5.0,9.0,100,0.00,,,0.20,0.000000,,2013-07-21 07:22:00,
2013-07-21 02:32:00,67.0,67.0,-100.00,NW,315,5.0,9.0,100,0.00,,,0.20,0.000000,,2013-07-21 07:32:00,
2013-07-21 02:43:00,67.0,67.0,-100.00,NW,315,5.0,9.0,100,0.00,,,0.20,0.000000,,2013-07-21 07:43:00,
2013-07-21 02:52:00,67.0,67.0,-100.00,NW,315,5.0,9.0,100,0.00,,,0.20,0.000000,,2013-07-21 07:52:00,
2013-07-21 03:22:00,67.0,67.0,-100.00,South,190,3.0,7.0,100,0.00,,,0.20,0.000000,,2013-07-21 08:22:00,
2013-07-21 03:33:00,67.0,67.0,-100.00,South,190,3.0,7.0,100,0.00,,,0.20,0.000000,,2013-07-21 08:33:00,
2013-07-21 03:43:00,67.0,67.0,-100.00,South,190,3.0,7.0,100,0.00,,,0.20,0.000000,,2013-07-21 08:43:00,
2013-07-21 03:52:00,67.0,67.0,-100.00,South,190,3.0,7.0,100,0.00,,,0.20,0.000000,,2013-07-21 08:52:00,
2013-07-21 04:22:00,66.0,66.0,-100.00,South,175,3.0,6.0,100,0.00,,,-99.99,0.000000,,2013-07-21 09:22:00,
2013-07-21 04:32:00,66.0,66.0,-100.00,South,175,3.0,6.0,100,0.00,,,-99.99,0.000000,,2013-07-21 09:32:00,
2013-07-21 04:42:00,66.0,66.0,-100.00,South,175,3.0,6.0,100,0.00,,,-99.99,0.000000,,2013-07-21 09:42:00,
2013-07-21 04:52:00,66.0,66.0,-100.00,South,175,3.0,6.0,100,0.00,,,-99.99,0.000000,,2013-07-21 09:52:00,
2013-07-21 05:22:00,66.0,66.0,-100.00,SE,129,5.0,7.0,100,0.00,,,0.20,0.000000,,2013-07-21 10:22:00,
2013-07-21 05:32:00,66.0,66.0,-100.00,SE,129,5.0,7.0,100,0.00,,,0.20,0.000000,,2013-07-21 10:32:00,
2013-07-21 05:43:00,66.0,66.0,-100.00,SE,129,5.0,7.0,100,0.00,,,0.20,0.000000,,2013-07-21 10:43:00,
2013-07-21 05:52:00,66.0,66.0,-100.00,SE,129,5.0,7.0,100,0.00,,,0.20,0.000000,,2013-07-21 10:52:00,
2013-07-21 06:22:00,67.0,67.0,-100.00,SSE,164,13.0,17.0,100,0.00,,,0.20,0.000000,,2013-07-21 11:22:00,
2013-07-21 06:33:00,67.0,67.0,-100.00,SSE,164,13.0,17.0,100,0.00,,,0.20,0.000000,,2013-07-21 11:33:00,
2013-07-21 06:43:00,67.0,67.0,-100.00,SSE,164,13.0,17.0,100,0.00,,,0.20,0.000000,,2013-07-21 11:43:00,
2013-07-21 06:52:00,67.0,67.0,-100.00,SSE,164,13.0,17.0,100,0.00,,,0.20,0.000000,,2013-07-21 11:52:00,
2013-07-21 07:22:00,68.0,68.0,-100.00,WNW,289,5.0,19.0,100,0.00,,,0.20,0.000000,,2013-07-21 12:22:00,
2013-07-21 07:32:00,68.0,68.0,-100.00,WNW,289,5.0,19.0,100,0.00,,,0.20,0.000000,,2013-07-21 12:32:00,
2013-07-21 07:43:00,68.0,68.0,-100.00,WNW,289,5.0,19.0,100,0.00,,,0.20,0.000000,,2013-07-21 12:43:00,
2013-07-21 07:53:00,68.0,68.0,-100.00,WNW,289,5.0,19.0,100,0.00,,,0.20,0.000000,,2013-07-21 12:53:00,
2013-07-21 08:22:00,69.0,69.0,-100.00,WNW,303,8.0,12.0,100,0.00,,,0.20,0.000000,,2013-07-21 13:22:00,
2013-07-21 08:32:00,69.0,69.0,-100.00,WNW,303,8.0,12.0,100,0.00,,,0.20,0.000000,,2013-07-21 13:32:00,
2013-07-21 08:42:00,69.0,69.0,-100.00,WNW,303,8.0,12.0,100,0.00,,,0.20,0.000000,,2013-07-21 13:42:00,
2013-07-21 08:52:00,69.0,69.0,-100.00,WNW,303,8.0,12.0,100,0.00,,,0.20,0.000000,,2013-07-21 13:52:00,
2013-07-21 09:22:00,71.0,71.0,-100.00,WNW,282,6.0,10.0,100,0.00,,,0.20,0.000000,,2013-07-21 14:22:00,
2013-07-21 09:32:00,71.0,71.0,-100.00,WNW,282,6.0,10.0,100,0.00,,,0.20,0.000000,,2013-07-21 14:32:00,
2013-07-21 09:43:00,71.0,71.0,-100.00,WNW,282,6.0,10.0,100,0.00,,,0.20,0.000000,,2013-07-21 14:43:00,
2013-07-21 09:53:00,71.0,71.0,-100.00,WNW,282,6.0,10.0,100,0.00,,,0.20,0.000000,,2013-07-21 14:53:00,
2013-07-21 10:22:00,78.0,70.0,-100.00,SSW,210,9.0,13.0,77,0.00,,,0.20,0.000000,,2013-07-21 15:22:00,
2013-07-21 10:32:00,78.0,70.0,-100.00,SSW,210,9.0,13.0,77,0.00,,,0.20,0.000000,,2013-07-21 15:32:00,
2013-07-21 10:43:00,78.0,70.0,-100.00,SSW,210,9.0,13.0,77,0.00,,,0.20,0.000000,,2013-07-21 15:43:00,
2013-07-21 10:53:00,78.0,70.0,-100.00,SSW,210,9.0,13.0,77,0.00,,,0.20,0.000000,,2013-07-21 15:53:00,
2013-07-21 11:22:00,80.0,68.0,-100.00,South,180,10.0,15.0,66,0.00,,,0.20,0.000000,,2013-07-21 16:22:00,
2013-07-21 11:32:00,80.0,68.0,-100.00,South,180,10.0,15.0,66,0.00,,,0.20,0.000000,,2013-07-21 16:32:00,
2013-07-21 11:43:00,80.0,68.0,-100.00,South,180,10.0,15.0,66,0.00,,,0.20,0.000000,,2013-07-21 16:43:00,
2013-07-21 11:52:00,80.0,68.0,-100.00,South,180,10.0,15.0,66,0.00,,,0.20,0.000000,,2013-07-21 16:52:00,
2013-07-21 12:22:00,85.0,70.0,-100.00,SSW,198,8.0,14.0,61,0.00,,,0.20,0.000000,,2013-07-21 17:22:00,
2013-07-21 12:33:00,85.0,70.0,-100.00,SSW,198,8.0,14.0,61,0.00,,,0.20,0.000000,,2013-07-21 17:33:00,
2013-07-21 12:43:00,85.0,70.0,-100.00,SSW,198,8.0,14.0,61,0.00,,,0.20,0.000000,,2013-07-21 17:43:00,
2013-07-21 12:53:00,85.0,70.0,-100.00,SSW,198,8.0,14.0,61,0.00,,,0.20,0.000000,,2013-07-21 17:53:00,
2013-07-21 13:22:00,85.0,68.0,-100.00,SSE,165,9.0,14.0,56,0.00,,,0.17,0.000000,,2013-07-21 18:22:00,
2013-07-21 13:32:00,85.0,68.0,-100.00,SSE,165,9.0,14.0,56,0.00,,,0.17,0.000000,,2013-07-21 18:32:00,
2013-07-21 13:43:00,85.0,68.0,-100.00,SSE,165,9.0,14.0,56,0.00,,,0.17,0.000000,,2013-07-21 18:43:00,
2013-07-21 13:52:00,85.0,68.0,-100.00,SSE,165,9.0,14.0,56,0.00,,,0.17,0.000000,,2013-07-21 18:52:00,
2013-07-21 14:22:00,89.0,67.0,-100.00,SW,231,9.0,14.0,49,0.00,,,0.00,0.000000,,2013-07-21 19:22:00,
2013-07-21 14:32:00,89.0,67.0,-100.00,SW,231,9.0,14.0,49,0.00,,,0.00,0.000000,,2013-07-21 19:32:00,
2013-07-21 14:42:00,89.0,67.0,-100.00,SW,231,9.0,14.0,49,0.00,,,0.00,0.000000,,2013-07-21 19:42:00,
2013-07-21 14:52:00,89.0,67.0,-100.00,SW,231,9.0,14.0,49,0.00,,,0.00,0.000000,,2013-07-21 19:52:00,
2013-07-21 15:22:00,91.0,63.0,-100.00,SSW,205,7.0,14.0,39,0.00,,,0.00,0.000000,,2013-07-21 20:22:00,
2013-07-21 15:32:00,91.0,63.0,-100.00,SSW,205,7.0,14.0,39,0.00,,,0.00,0.000000,,2013-07-21 20:32:00,
2013-07-21 15:42:00,91.0,63.0,-100.00,SSW,205,7.0,14.0,39,0.00,,,0.00,0.000000,,2013-07-21 20:42:00,
2013-07-21 15:52:00,91.0,63.0,-100.00,SSW,205,7.0,14.0,39,0.00,,,0.00,0.000000,,2013-07-21 20:52:00,
2013-07-21 16:22:00,91.0,63.0,-100.00,SSE,165,8.0,14.0,39,0.00,,,0.00,0.000000,,2013-07-21 21:22:00,
2013-07-21 16:32:00,91.0,63.0,-100.00,SSE,165,8.0,14.0,39,0.00,,,0.00,0.000000,,2013-07-21 21:32:00,
2013-07-21 16:43:00,91.0,63.0,-100.00,SSE,165,8.0,14.0,39,0.00,,,0.00,0.000000,,2013-07-21 21:43:00,
2013-07-21 16:52:00,91.0,63.0,-100.00,SSE,165,8.0,14.0,39,0.00,,,0.00,0.000000,,2013-07-21 21:52:00,
2013-07-21 17:22:00,89.0,63.0,-100.00,South,173,6.0,11.0,42,0.00,,,0.00,0.000000,,2013-07-21 22:22:00,
2013-07-21 17:32:00,89.0,63.0,-100.00,South,173,6.0,11.0,42,0.00,,,0.00,0.000000,,2013-07-21 22:32:00,
2013-07-21 17:43:00,89.0,63.0,-100.00,South,173,6.0,11.0,42,0.00,,,0.00,0.000000,,2013-07-21 22:43:00,
2013-07-21 17:52:00,89.0,63.0,-100.00,South,173,6.0,11.0,42,0.00,,,0.00,0.000000,,2013-07-21 22:52:00,
2013-07-21 18:22:00,91.0,64.0,-100.00,SSE,163,9.0,12.0,41,0.00,,,0.00,0.000000,,2013-07-21 23:22:00,
2013-07-21 18:32:00,91.0,64.0,-100.00,SSE,163,9.0,12.0,41,0.00,,,0.00,0.000000,,2013-07-21 23:32:00,
2013-07-21 18:42:00,91.0,64.0,-100.00,SSE,163,9.0,12.0,41,0.00,,,0.00,0.000000,,2013-07-21 23:42:00,
2013-07-21 18:52:00,91.0,64.0,-100.00,SSE,163,9.0,12.0,41,0.00,,,0.00,0.000000,,2013-07-21 23:52:00,
2013-07-21 19:22:00,90.0,66.0,-100.00,SSE,158,7.0,11.0,45,0.00,,,0.00,0.000000,,2013-07-22 00:22:00,
2013-07-21 19:32:00,90.0,66.0,-100.00,SSE,158,7.0,11.0,45,0.00,,,0.00,0.000000,,2013-07-22 00:32:00,
2013-07-21 19:42:00,90.0,66.0,-100.00,SSE,158,7.0,11.0,45,0.00,,,0.00,0.000000,,2013-07-22 00:42:00,
2013-07-21 19:52:00,90.0,66.0,-100.00,SSE,158,7.0,11.0,45,0.00,,,0.00,0.000000,,2013-07-22 00:52:00,
2013-07-21 20:22:00,85.0,71.0,-100.00,SE,124,9.0,13.0,63,0.00,,,0.00,0.000000,,2013-07-22 01:22:00,
2013-07-21 20:32:00,85.0,71.0,-100.00,SE,124,9.0,13.0,63,0.00,,,0.00,0.000000,,2013-07-22 01:32:00,
2013-07-21 20:42:00,85.0,71.0,-100.00,SE,124,9.0,13.0,63,0.00,,,0.00,0.000000,,2013-07-22 01:42:00,
2013-07-21 20:52:00,85.0,71.0,-100.00,SE,124,9.0,13.0,63,0.00,,,0.00,0.000000,,2013-07-22 01:52:00,
2013-07-21 21:32:00,78.0,72.0,-100.00,SE,133,5.0,11.0,81,0.00,,,0.00,0.000000,,2013-07-22 02:32:00,
2013-07-21 21:43:00,78.0,72.0,-100.00,SE,133,5.0,11.0,81,0.00,,,0.00,0.000000,,2013-07-22 02:43:00,
2013-07-21 21:52:00,78.0,72.0,-100.00,SE,133,5.0,11.0,81,0.00,,,0.00,0.000000,,2013-07-22 02:52:00,
2013-07-21 22:22:00,74.0,73.0,-100.00,SE,132,6.0,8.0,97,0.00,,,0.00,0.000000,,2013-07-22 03:22:00,
2013-07-21 22:33:00,74.0,73.0,-100.00,SE,132,6.0,8.0,97,0.00,,,0.00,0.000000,,2013-07-22 03:33:00,
2013-07-21 22:43:00,74.0,73.0,-100.00,SE,132,6.0,8.0,97,0.00,,,0.00,0.000000,,2013-07-22 03:43:00,
2013-07-21 22:53:00,74.0,73.0,-100.00,SE,132,6.0,8.0,97,0.00,,,0.00,0.000000,,2013-07-22 03:53:00,
2013-07-21 23:22:00,73.0,73.0,-100.00,SE,141,7.0,9.0,99,0.00,,,0.00,0.000000,,2013-07-22 04:22:00,
2013-07-21 23:33:00,73.0,73.0,-100.00,SE,141,7.0,9.0,99,0.00,,,0.00,0.000000,,2013-07-22 04:33:00,
2013-07-21 23:43:00,73.0,73.0,-100.00,SE,141,7.0,9.0,99,0.00,,,0.00,0.000000,,2013-07-22 04:43:00,